Powrót do katalogu

COSMOS 1823 DEB

AktywnyLEO
NORAD 39810·DEBRIS·🇷🇺 Russia

Wystrzelony Feb 20, 1987 z Plesetsk Cosmodrome

Loading…

Następne Przeloty (najbliższe 24 godziny)

TLE

NieaktualneSource: Space-Track

Epoka: Sep 2, 2026, 22:21 UTC

1 39810U 87020EJ  26245.93153250  .00000026  00000-0  31160-3 0  9997
2 39810  73.6994  79.3213 0035699 349.5707  10.4593 12.41842449557056

Śledź COSMOS 1823 DEB w czasie rzeczywistym z AllMySat

Download on the App Store